Powrót do katalogu

STARLINK-38239

AktywnyŁącznośćSSO
NORAD 100314·PAYLOAD·🇺🇸 United States

Wystrzelony Aug 12, 2026 z Vandenberg Space Force Base

Loading…

Następne Przeloty (najbliższe 24 godziny)

TLE

ŚwieżeSource: Space-Track

Epoka: Sep 14, 2026, 18:41 UTC

1 A0314U 26184P   26257.77881558  .00017798  00000-0  55265-3 0  9998
2 A0314  97.2839 122.9805 0001086  78.8510 281.2854 15.33426285  6486

Śledź STARLINK-38239 w czasie rzeczywistym z AllMySat

Download on the App Store